TimeMST,TemperatureF,Dew PointF,Humidity,Sea Level PressureIn,VisibilityMPH,Wind Direction,Wind SpeedMPH,Gust SpeedMPH,PrecipitationIn,Events,Conditions,WindDirDegrees,DateUTC
12:53 AM,30.9,24.1,76,29.94,10.0,ENE,3.5,-,N/A,,Clear,60,2013-03-08 07:53:00
1:53 AM,32.0,21.9,66,29.94,10.0,North,5.8,-,N/A,,Clear,10,2013-03-08 08:53:00
2:53 AM,30.0,25.0,82,29.92,10.0,East,4.6,-,N/A,,Mostly Cloudy,80,2013-03-08 09:53:00
3:53 AM,30.0,24.1,79,29.91,10.0,East,4.6,-,N/A,,Clear,90,2013-03-08 10:53:00
4:53 AM,30.9,23.0,72,29.92,10.0,NE,3.5,-,N/A,,Mostly Cloudy,40,2013-03-08 11:53:00
5:53 AM,30.9,25.0,79,29.92,10.0,Calm,Calm,-,N/A,,Overcast,0,2013-03-08 12:53:00
6:53 AM,30.9,24.1,76,29.94,10.0,NNE,4.6,-,N/A,,Overcast,30,2013-03-08 13:53:00
7:53 AM,33.1,24.1,70,29.93,10.0,ENE,5.8,-,N/A,,Clear,60,2013-03-08 14:53:00
8:53 AM,36.0,23.0,59,29.91,10.0,Calm,Calm,-,N/A,,Overcast,0,2013-03-08 15:53:00
9:53 AM,37.0,27.0,67,29.97,9.0,SW,8.1,-,0.00,,Overcast,230,2013-03-08 16:53:00
10:53 AM,36.0,30.9,82,29.97,10.0,North,9.2,-,0.00,,Overcast,10,2013-03-08 17:53:00
11:53 AM,37.9,32.0,79,29.95,10.0,East,8.1,-,0.00,Rain,Light Rain,80,2013-03-08 18:53:00
12:05 PM,37.4,32.0,81,29.93,8.0,East,6.9,-,0.00,Rain,Light Rain,80,2013-03-08 19:05:00
12:51 PM,41.0,33.8,76,29.88,10.0,ENE,11.5,-,0.00,,Scattered Clouds,70,2013-03-08 19:51:00
12:53 PM,41.0,33.1,73,29.89,10.0,East,10.4,-,0.00,,Scattered Clouds,80,2013-03-08 19:53:00
1:08 PM,42.8,33.8,70,29.87,10.0,East,8.1,-,N/A,,Mostly Cloudy,90,2013-03-08 20:08:00
1:41 PM,42.8,32.0,66,29.83,10.0,East,11.5,-,N/A,,Overcast,100,2013-03-08 20:41:00
1:53 PM,44.1,32.0,63,29.81,10.0,East,10.4,-,0.00,Rain,Light Rain,90,2013-03-08 20:53:00
2:12 PM,41.0,30.2,65,29.83,10.0,East,9.2,16.1,0.00,Rain,Light Rain,100,2013-03-08 21:12:00
2:53 PM,39.0,35.1,86,29.83,10.0,SE,4.6,-,0.03,Rain,Light Rain,130,2013-03-08 21:53:00
3:03 PM,39.2,35.6,87,29.81,10.0,SSE,4.6,-,0.00,,Mostly Cloudy,150,2013-03-08 22:03:00
3:43 PM,37.4,35.6,93,29.80,6.0,SSE,10.4,20.7,0.01,Rain,Light Rain,160,2013-03-08 22:43:00
3:53 PM,37.0,35.1,93,29.82,3.0,ESE,12.7,20.7,0.04,Rain,Rain,120,2013-03-08 22:53:00
4:19 PM,37.4,37.4,100,29.78,10.0,ESE,5.8,-,0.00,Rain,Light Rain,120,2013-03-08 23:19:00
4:29 PM,35.6,35.6,100,29.80,2.5,WSW,21.9,29.9,0.02,Rain,Rain,240,2013-03-08 23:29:00
4:33 PM,33.8,33.8,100,29.81,1.2,WSW,18.4,29.9,0.02,Snow,Light Snow,240,2013-03-08 23:33:00
4:40 PM,33.8,33.8,100,29.81,0.8,WSW,18.4,26.5,0.03,Snow,Light Snow,250,2013-03-08 23:40:00
4:51 PM,32.0,32.0,100,29.82,0.5,West,20.7,28.8,0.04,Fog-Snow,Snow,260,2013-03-08 23:51:00
4:53 PM,32.0,32.0,100,29.86,0.5,West,20.7,28.8,0.04,Fog-Snow,Snow,260,2013-03-08 23:53:00
5:07 PM,32.0,32.0,100,29.82,0.8,West,13.8,-,0.00,Snow,Light Snow,260,2013-03-09 00:07:00
5:14 PM,32.0,32.0,100,29.82,1.0,WSW,10.4,-,0.00,Snow,Light Snow,250,2013-03-09 00:14:00
5:27 PM,32.0,32.0,100,29.80,0.5,North,9.2,-,0.02,Fog-Snow,Snow,360,2013-03-09 00:27:00
5:34 PM,32.0,32.0,100,29.78,1.5,North,12.7,-,0.02,Snow,Light Snow,10,2013-03-09 00:34:00
5:37 PM,32.0,32.0,100,29.78,3.0,North,10.4,-,0.02,Snow,Light Snow,10,2013-03-09 00:37:00
5:44 PM,33.8,33.8,100,29.80,9.0,North,6.9,-,0.02,,Overcast,350,2013-03-09 00:44:00
5:53 PM,32.0,32.0,100,29.84,10.0,North,5.8,-,0.02,,Mostly Cloudy,350,2013-03-09 00:53:00
6:53 PM,32.0,32.0,100,29.83,10.0,ESE,4.6,-,N/A,,Partly Cloudy,110,2013-03-09 01:53:00
7:49 PM,33.8,32.0,93,29.79,10.0,SE,3.5,-,N/A,,Overcast,130,2013-03-09 02:49:00
7:53 PM,33.1,32.0,96,29.83,10.0,ESE,3.5,-,N/A,,Overcast,120,2013-03-09 02:53:00
8:22 PM,32.0,30.2,93,29.79,1.8,ESE,10.4,-,0.00,Snow,Light Snow,120,2013-03-09 03:22:00
8:30 PM,32.0,32.0,100,29.78,1.2,ESE,6.9,-,0.01,Snow,Light Snow,120,2013-03-09 03:30:00
8:49 PM,32.0,32.0,100,29.78,1.0,ESE,5.8,-,0.02,Snow,Light Snow,120,2013-03-09 03:49:00
8:53 PM,32.0,32.0,100,29.80,1.2,ESE,5.8,-,0.03,Snow,Light Snow,120,2013-03-09 03:53:00
9:09 PM,32.0,32.0,100,29.78,0.8,ESE,6.9,-,0.02,Snow,Light Snow,120,2013-03-09 04:09:00
9:48 PM,32.0,30.2,93,29.78,0.5,West,4.6,-,0.12,Fog-Snow,Snow,280,2013-03-09 04:48:00
9:53 PM,32.0,32.0,100,29.79,0.5,NW,4.6,-,0.15,Fog-Snow,Snow,310,2013-03-09 04:53:00
10:03 PM,32.0,32.0,100,29.77,0.5,Calm,Calm,-,0.03,Fog-Snow,Snow,0,2013-03-09 05:03:00
10:43 PM,32.0,30.2,93,29.77,2.0,NE,4.6,-,0.09,Snow,Light Snow,50,2013-03-09 05:43:00
10:50 PM,30.2,30.2,100,29.77,3.0,ENE,3.5,-,0.09,Snow,Light Snow,70,2013-03-09 05:50:00
10:51 PM,30.9,30.9,100,29.79,3.0,Calm,Calm,-,0.09,Snow,Light Snow,0,2013-03-09 05:51:00
11:34 PM,32.0,30.2,93,29.77,7.0,South,3.5,-,0.00,Snow,Light Snow,190,2013-03-09 06:34:00
11:40 PM,30.2,30.2,100,29.77,2.5,SSE,3.5,-,0.00,Snow,Light Snow,160,2013-03-09 06:40:00
11:44 PM,30.2,30.2,100,29.77,1.2,Calm,Calm,-,0.00,,Overcast,0,2013-03-09 06:44:00
11:50 PM,32.0,30.2,93,29.77,1.5,East,3.5,-,0.00,,Overcast,100,2013-03-09 06:50:00
11:53 PM,32.0,30.9,96,29.78,3.0,East,3.5,-,0.00,,Overcast,100,2013-03-09 06:53:00